Date,TemperatureHighF,TemperatureAvgF,TemperatureLowF,DewpointHighF,DewpointAvgF,DewpointLowF,HumidityHigh,HumidityAvg,HumidityLow,PressureMaxIn,PressureMinIn,WindSpeedMaxMPH,WindSpeedAvgMPH,GustSpeedMaxMPH,PrecipitationSumIn
2014-3-1,27.9,15.8,-4.0,14.5,4.5,-8.4,82,62,36,30.47,30.03,8,2,11,0.00
2014-3-2,28.8,24.2,14.0,18.7,8.4,-99.9,73,56,48,30.05,29.97,7,-32,8,0.00
2014-3-3,21.1,12.8,3.5,3.3,-3.8,-8.9,66,48,32,30.29,30.03,9,3,13,0.00
2014-3-4,24.6,13.9,-5.5,10.9,-0.6,-11.4,77,53,37,30.37,30.22,6,2,11,0.00
2014-3-5,20.0,13.8,5.4,9.6,4.9,-2.9,86,68,48,30.52,30.28,5,2,9,0.00
2014-3-6,33.7,15.0,-6.0,7.8,-5.5,-12.5,77,45,14,30.64,30.50,3,0,5,0.01
2014-3-7,34.5,21.2,-1.0,23.0,10.8,-5.0,92,66,30,30.50,29.98,8,2,15,0.00
2014-3-8,46.2,27.8,11.5,28.2,19.2,9.1,94,72,42,29.97,29.67,10,2,18,0.00
2014-3-9,32.8,25.6,16.8,14.0,9.2,2.7,76,51,33,29.93,29.83,11,3,16,0.00
2014-3-10,22.6,21.6,20.8,11.0,7.1,2.6,65,53,42,29.87,29.84,1,0,2,0.00
2014-3-11,43.4,38.9,31.3,37.0,30.3,25.8,92,72,61,29.70,29.50,11,4,12,0.10
2014-3-12,36.2,31.4,21.9,33.9,28.9,19.4,96,90,78,29.73,29.16,11,3,16,0.66
2014-3-13,22.2,15.8,11.9,19.7,11.1,4.3,92,81,65,29.80,29.10,17,9,22,0.00
2014-3-14,32.5,21.4,5.5,21.7,8.3,-0.4,78,58,35,30.09,29.80,8,4,12,0.03
2014-3-15,34.8,33.7,32.5,31.3,25.5,21.0,88,72,62,29.86,29.70,6,4,13,0.00
2014-3-16,22.0,18.2,11.4,6.7,0.2,-99.9,54,47,44,30.20,30.01,17,-10,20,0.01
2014-3-17,24.9,14.9,5.9,2.4,-3.0,-6.6,59,45,32,30.21,30.03,8,4,8,0.00
2014-3-18,37.9,20.9,5.0,16.6,3.3,-3.5,80,50,20,30.36,30.17,5,1,6,0.00
2014-3-19,37.0,26.1,13.4,28.1,18.4,11.0,94,74,44,30.42,30.10,6,2,11,0.00
2014-3-20,36.2,31.9,29.0,34.9,30.7,27.3,97,95,92,30.10,29.53,5,2,6,0.16
2014-3-22,34.8,32.1,27.6,31.7,24.8,20.7,89,74,70,29.89,29.69,18,9,19,0.06
2014-3-23,31.3,25.1,12.5,23.9,13.1,0.4,87,62,39,30.08,29.87,14,5,15,0.00
2014-3-24,24.9,16.3,8.5,5.6,0.7,-3.7,67,50,38,30.14,30.00,12,5,13,0.00
2014-3-25,31.4,16.9,2.4,17.2,6.9,-1.1,87,59,38,30.14,30.01,8,2,9,0.00
2014-3-26,32.8,25.7,21.0,17.5,13.7,8.9,81,61,39,30.04,29.53,16,9,24,0.00
2014-3-27,36.1,25.4,14.2,21.3,5.6,-2.6,63,43,30,30.22,29.84,19,7,20,0.00
2014-3-28,42.2,37.5,32.1,41.0,30.3,18.3,97,76,53,30.20,29.89,7,3,9,0.07
2014-3-29,51.5,42.8,36.2,41.0,35.5,32.7,97,77,50,30.26,29.93,6,2,9,0.02
2014-3-30,37.2,34.0,31.6,34.6,32.5,29.6,95,94,90,30.14,29.76,9,5,15,1.00
2014-3-31,37.4,33.5,30.0,30.3,28.4,27.3,92,82,70,30.01,29.76,14,9,19,0.24